User: anonymous   Login
Location: Warszawa
(52.2500°N, 21.0000°E)
Time: 20:24:37
(UTC+02:00)
Language:

CUBESAT XI-V - Orbit

View from above orbital plane
View from above orbital plane
View from above satellite
View from above satellite

Ground track
Ground track

The orbit data is extracted from the following two-line orbital elements,

1 28895U 05043F   24112.85478385  .00006754  00000-0  12021-2 0  9992
2 28895  98.1922 248.6436 0016228 171.6123 188.5355 14.67327449986429
Epoch (UTC): 21 April 2024 20:30:53
Eccentricity: 0.0016228
inclination: 98.1922°
perigee height: 658 km
apogee height: 681 km
right ascension of ascending node: 248.6436°
argument of perigee: 171.6123°
revolutions per day: 14.67327449
mean anomaly at epoch: 188.5355°
orbit number at epoch: 98642

The dashed part of the orbit path shows where the satellite is in the earth's shadow,  

DLR